Wind_Speed
39 39 37 37 37 41 43 40 39 39 40 41 42 44 43 43 44 40 36 34 34 36 36 34 31 28 26 24 24 26 26 28 30 31 32 29 26 27 25 24 24 22 20 18 19 19 18 17 15 13 10 7 5 4 4 4 6 5 2 2 3 3 3 4 6 6 3 1 5 10 13 10 4 8 9 5 7 9 8 10 11 12 13 11 8 6 5 5
39 39 39 38 36 39 43 42 41 40 40 41 42 44 44 44 46 41 37 34 32 34 36 36 33 30 26 24 27 28 27 26 27 32 34 28 25 28 24 20 22 23 22 21 20 20 19 18 17 14 11 8 5 5 5 5 6 3 3 2 4 4 4 5 8 9 3 1 8 11 12 11 7 9 10 5 5 8 8 9 12 14 14 14 13 10 8 7
39 39 39 39 38 38 41 44 44 43 41 42 42 44 44 44 45 41 38 36 32 32 34 36 34 32 28 27 30 29 28 24 25 32 32 28 27 27 25 20 19 22 24 23 21 19 18 17 16 14 12 9 6 6 6 5 5 2 2 2 5 5 4 4 7 10 5 2 7 11 11 10 8 10 11 6 3 5 8 11 12 15 16 14 14 13 12 11
39 39 39 39 39 38 39 43 46 45 43 42 43 44 44 44 44 42 40 36 32 31 32 35 35 32 29 29 30 29 27 21 26 35 29 29 29 25 25 21 18 21 24 23 20 18 17 16 15 14 13 8 7 7 6 6 5 3 4 3 4 4 3 3 5 6 6 5 6 10 10 8 9 11 12 8 3 4 12 17 15 14 14 12 13 13 14 13
39 39 39 39 40 39 38 42 46 47 44 42 42 44 44 45 44 43 42 37 33 31 30 34 36 32 28 29 30 30 26 11 17 32 28 30 31 26 24 21 19 21 24 24 21 20 18 17 15 14 11 6 7 5 5 8 7 3 4 3 2 3 1 2 4 4 6 6 5 8 7 6 10 10 13 12 6 7 11 13 11 10 10 11 12 13 14 15
39 39 39 39 40 40 38 40 44 46 46 44 43 43 44 45 45 42 43 39 33 31 29 32 37 35 28 27 29 32 28 7 4 19 29 33 32 27 25 22 22 22 24 24 23 23 20 19 17 15 11 5 7 6 4 11 9 4 3 3 3 4 2 2 3 4 5 6 6 7 5 7 9 7 12 15 14 15 10 6 5 4 6 9 12 14 15 15
40 39 39 40 41 41 39 39 43 45 46 46 45 44 44 45 44 41 43 40 35 32 30 31 35 38 31 23 23 28 29 12 2 9 24 31 31 29 27 23 23 23 24 25 25 25 23 22 19 16 11 4 6 6 6 11 10 5 3 3 4 5 5 2 2 5 5 6 6 6 5 7 9 6 7 15 20 19 14 10 9 8 8 8 10 15 16 15
41 40 39 40 41 41 40 39 41 45 47 47 46 46 45 45 44 42 42 40 37 32 31 32 33 38 36 26 20 17 23 16 6 8 15 25 29 29 29 25 24 24 24 26 26 26 25 24 22 17 10 4 7 8 8 8 5 5 4 4 4 4 6 4 4 5 5 5 4 6 6 6 9 6 5 13 18 16 16 17 16 15 13 12 12 13 16 17
42 41 40 40 40 40 41 40 40 45 48 47 47 47 47 46 45 43 42 40 38 34 33 32 32 36 36 34 24 9 17 20 11 10 10 19 28 27 28 27 26 26 25 26 26 26 25 24 24 18 11 8 7 7 10 7 3 7 8 6 5 3 4 5 6 6 5 4 4 5 6 5 7 6 6 14 17 15 15 17 17 17 15 14 14 14 15 17
42 42 41 40 39 39 40 40 40 44 48 48 47 47 47 47 45 44 42 40 38 35 33 33 32 33 33 35 25 10 20 22 12 9 10 13 25 28 28 27 27 27 27 27 25 26 25 24 26 20 11 9 7 5 8 7 3 5 8 7 5 3 3 3 5 6 5 4 4 5 5 6 6 5 5 6 7 10 14 17 18 18 17 17 16 17 16 17
42 42 42 41 40 39 39 40 41 44 46 47 48 46 47 48 45 43 43 41 39 36 34 34 33 32 32 33 25 17 27 28 16 10 9 9 15 26 29 26 26 27 27 28 25 24 24 23 25 20 7 5 7 4 5 8 5 3 6 5 3 3 3 4 4 6 5 3 4 4 5 7 5 4 5 7 6 8 11 14 17 18 18 18 18 19 19 19
42 42 42 42 40 39 40 40 42 44 44 46 47 46 47 47 45 44 43 40 39 35 33 34 33 31 31 31 32 28 27 32 26 15 8 6 8 21 29 26 24 26 26 27 24 21 21 21 23 20 8 7 9 3 5 9 6 4 6 2 3 4 3 6 5 5 6 4 3 2 4 7 7 7 9 13 15 15 15 15 17 18 18 18 18 19 20 21
41 42 43 43 41 39 41 41 42 44 44 45 47 47 47 46 45 43 42 40 38 35 33 33 32 32 30 26 32 34 26 28 30 20 14 9 7 15 27 28 25 24 24 24 23 20 21 19 20 19 10 10 9 4 5 8 6 4 3 2 1 4 3 6 6 6 6 5 6 5 3 7 9 11 15 18 19 19 21 23 23 23 23 23 21 20 21 21
42 43 42 43 42 40 41 41 42 43 44 45 47 47 47 46 44 42 41 40 38 34 31 30 30 32 30 22 24 31 28 23 24 25 22 15 11 12 20 27 26 25 24 21 20 20 20 17 16 16 10 9 10 7 4 3 4 3 2 1 2 1 3 3 5 9 7 5 9 8 4 9 8 9 13 17 18 20 23 24 24 25 26 26 26 25 24 24
42 44 43 42 42 41 41 41 41 43 44 46 47 47 47 45 43 42 41 40 39 35 30 29 31 30 25 19 19 26 28 23 20 26 28 22 16 13 14 22 23 22 23 21 20 20 17 16 17 15 10 9 10 7 3 2 1 2 3 2 1 4 3 4 4 11 8 4 10 9 2 10 10 8 13 16 16 20 23 24 22 24 25 25 27 27 28 28
42 44 43 42 42 41 42 42 42 43 45 47 49 49 49 46 42 41 40 39 38 35 34 33 37 35 19 12 16 23 25 22 22 24 28 28 23 18 14 14 16 16 19 20 19 20 17 16 16 13 9 8 7 5 3 1 1 1 3 2 1 3 2 3 3 10 10 2 7 8 4 7 6 4 10 15 18 20 20 22 23 25 26 25 26 26 27 28
42 43 43 43 42 41 41 42 42 43 45 48 50 49 48 44 42 42 39 40 38 36 37 34 37 31 14 10 17 25 26 22 23 22 24 29 29 25 18 14 13 14 18 20 19 19 18 16 13 8 6 5 3 5 4 4 5 2 1 2 1 3 3 2 3 7 9 2 4 7 5 10 7 1 2 6 11 15 17 20 23 24 25 24 24 25 26 28
42 42 43 43 42 41 41 42 42 43 45 49 49 47 43 39 43 44 41 41 38 33 31 30 31 19 6 11 14 23 32 26 24 24 23 27 29 28 23 18 16 15 17 16 14 14 14 12 8 4 3 3 4 6 7 5 5 4 3 2 1 2 4 4 3 3 6 3 4 5 4 12 14 8 9 10 8 11 15 19 23 25 26 26 27 29 31 32
42 42 44 44 43 42 42 43 42 44 48 49 47 46 44 42 42 43 42 42 36 22 11 20 28 10 2 15 16 22 35 31 25 25 26 27 26 26 23 19 20 21 16 9 3 6 9 6 5 5 5 7 7 8 7 3 4 7 6 4 4 3 3 4 4 3 5 4 4 7 6 11 16 13 15 20 17 16 21 24 29 32 31 30 32 35 35 36
43 44 44 44 44 44 43 44 44 47 52 49 48 48 43 35 23 20 32 39 35 18 4 21 33 11 5 19 23 26 31 29 27 26 26 28 28 26 22 20 20 18 12 7 2 2 5 4 5 8 7 8 8 7 6 3 5 9 7 6 6 5 4 4 4 4 2 3 4 8 7 10 17 13 12 20 17 15 21 26 31 34 31 31 33 36 37 37
43 44 44 44 44 45 45 46 46 50 53 52 55 48 39 35 19 16 30 28 30 26 11 23 33 13 9 20 25 28 26 20 25 28 24 28 31 25 20 21 16 8 9 13 8 2 2 5 8 6 4 6 7 6 6 4 5 6 5 5 5 5 5 5 4 3 1 3 3 5 5 9 16 14 14 17 11 12 22 25 30 33 31 31 34 37 38 37
43 43 44 44 45 47 47 47 48 53 55 54 57 47 42 49 39 37 39 18 18 27 17 23 28 13 13 21 23 28 23 12 18 29 27 30 31 21 17 16 10 6 8 13 9 2 1 5 6 2 1 5 6 6 7 4 5 4 3 4 3 4 2 4 4 2 2 3 3 3 4 8 13 15 14 14 12 18 28 31 33 34 30 32 36 37 38 38
44 42 44 44 46 48 48 48 49 55 57 55 57 50 47 52 42 43 39 14 8 15 16 24 24 15 17 21 25 28 22 12 15 28 32 32 28 22 20 14 8 8 9 9 8 6 4 4 5 6 3 4 5 6 7 4 3 3 3 4 3 3 3 3 4 2 1 1 1 2 5 7 10 14 14 17 21 26 33 36 37 36 34 37 40 39 39 41
43 43 44 45 47 49 48 49 51 56 58 57 58 52 50 51 42 42 32 11 5 6 13 22 21 20 19 17 24 26 21 16 19 29 35 33 27 21 19 15 11 9 9 12 12 9 7 1 3 5 5 6 5 6 8 6 4 5 5 5 3 4 5 4 2 1 1 3 2 1 7 7 8 13 14 13 17 22 30 32 32 37 38 39 40 41 44 44
43 45 46 45 47 47 47 49 54 59 58 56 56 50 49 48 43 45 27 9 2 5 10 18 15 17 18 15 21 22 16 14 20 31 36 34 29 18 13 14 12 9 11 14 11 8 9 6 7 5 4 6 6 6 9 8 5 6 7 7 6 6 5 3 2 3 3 4 3 1 5 6 5 10 12 7 5 11 19 21 25 34 37 37 39 43 48 48
43 46 47 46 46 47 48 49 57 63 55 52 54 48 48 46 44 47 24 6 3 4 6 16 13 14 17 15 22 20 9 7 16 29 34 31 28 20 12 9 5 7 12 11 7 4 6 8 7 3 3 4 5 6 8 9 6 4 6 8 7 6 5 4 4 2 1 3 2 2 2 6 4 7 9 6 5 7 10 11 18 30 33 33 37 40 42 43
44 46 47 47 47 50 52 49 56 61 50 48 54 50 45 45 47 44 18 5 4 6 6 12 11 16 18 16 26 19 5 9 16 24 32 28 23 19 12 7 3 6 10 8 5 3 5 10 9 9 8 5 6 6 6 9 7 3 5 10 9 7 7 5 5 4 3 2 2 1 2 5 8 7 6 7 9 8 7 8 14 24 31 34 36 38 39 39
44 45 47 47 48 54 55 50 55 59 51 51 58 53 45 46 48 35 11 1 6 6 8 9 8 17 20 19 25 14 4 13 13 18 32 28 20 15 9 9 9 9 13 11 6 2 7 12 12 12 9 7 9 5 4 9 6 2 4 8 9 8 7 6 5 4 1 2 4 3 3 4 9 6 1 3 8 8 7 8 12 21 32 36 38 40 40 40
45 45 47 48 48 53 56 53 58 61 55 55 57 52 48 48 39 17 3 4 4 3 8 12 9 15 19 17 16 8 6 7 5 15 31 26 20 13 5 11 12 11 15 13 5 2 4 13 18 15 9 9 11 6 7 9 4 1 4 6 4 4 4 5 5 4 2 1 8 8 6 5 9 5 1 0 5 8 7 7 12 21 32 35 37 39 38 37
45 44 46 47 47 54 55 49 56 61 57 58 55 51 50 41 22 7 4 6 3 3 8 12 11 15 19 13 6 5 6 3 5 17 21 16 17 12 7 12 12 9 10 8 4 2 1 9 16 14 10 11 9 6 8 10 6 4 5 6 5 4 3 2 3 3 3 4 11 10 10 6 8 3 4 3 4 6 6 6 10 18 27 32 32 32 32 30
44 43 43 44 48 57 52 40 47 59 61 58 53 51 42 21 6 5 8 6 5 5 8 8 8 13 17 12 6 5 3 1 7 14 10 7 10 8 7 9 6 5 6 5 4 2 3 6 8 7 12 12 7 4 5 9 11 6 3 3 3 2 2 2 1 3 4 6 9 7 9 9 8 5 3 4 5 5 6 7 8 12 20 25 26 27 27 26
42 42 41 46 52 57 53 44 50 59 59 56 56 48 27 8 2 4 6 7 5 6 8 10 10 11 14 14 10 7 4 2 5 9 8 5 4 6 6 6 5 4 4 6 6 3 4 4 3 4 13 15 9 5 3 5 8 6 4 3 3 3 3 3 3 3 4 6 5 4 8 7 10 12 11 10 8 7 9 11 12 14 21 28 32 35 34 33
41 40 42 52 55 53 52 50 56 59 56 57 54 35 12 5 7 6 6 6 4 7 10 11 14 14 15 15 11 8 6 3 5 8 9 6 5 7 6 4 6 3 2 7 6 3 2 3 4 4 8 15 12 8 6 5 7 9 7 6 4 3 3 3 3 2 3 6 4 5 8 2 7 11 15 16 15 19 22 22 24 26 31 39 43 43 43 42
38 40 49 57 54 51 52 51 56 58 58 56 41 18 8 7 8 7 7 4 3 8 10 11 15 16 14 12 10 9 6 2 6 8 8 6 5 7 6 5 7 2 3 6 4 5 5 4 7 7 6 13 14 11 7 5 7 10 7 6 6 3 3 3 2 2 3 3 3 3 5 4 6 4 5 8 10 17 25 28 32 35 39 44 45 45 45 44
38 45 54 54 49 50 53 55 57 58 59 47 21 7 9 8 7 8 7 4 3 7 10 13 16 14 9 7 8 8 3 1 6 7 7 8 5 7 8 7 9 5 4 6 4 5 7 4 6 9 10 16 16 10 8 6 5 6 4 5 7 6 4 1 0 3 3 1 2 2 2 5 6 6 7 6 3 7 15 20 26 32 37 38 38 40 41 38
44 51 51 48 49 50 52 56 57 58 56 34 9 6 8 4 6 9 7 5 7 12 15 14 12 10 7 4 7 8 1 2 8 6 5 8 6 7 8 6 9 8 5 6 3 3 7 5 4 6 7 15 18 12 10 9 6 3 4 6 5 2 5 2 2 2 2 2 3 3 3 4 5 10 12 8 7 9 12 15 20 28 29 27 31 35 37 37
49 49 45 44 48 50 53 58 58 57 48 22 6 7 5 0 2 5 6 7 8 14 16 11 8 10 9 5 7 11 4 3 9 6 4 7 6 8 9 5 9 12 8 5 2 2 6 3 2 6 6 11 16 15 11 8 6 4 5 6 2 4 3 2 2 0 1 5 3 3 6 4 4 7 6 5 7 7 8 11 16 24 25 23 30 37 38 39
49 46 43 42 47 52 55 56 56 52 34 13 7 5 2 1 1 4 9 10 12 14 12 7 6 7 9 9 9 13 10 7 9 7 5 6 5 9 12 6 8 17 15 7 2 1 5 1 3 7 8 5 8 9 7 4 1 2 3 5 5 1 1 3 3 2 3 4 3 3 6 5 5 9 8 10 11 5 4 8 10 18 24 24 29 36 37 38
47 37 31 39 49 53 55 55 53 42 20 8 9 5 2 2 2 6 16 15 11 12 8 4 5 6 8 11 11 13 12 10 10 8 6 5 3 9 14 8 6 15 16 10 4 1 3 3 4 3 4 6 6 5 6 5 1 2 1 3 2 2 3 4 3 2 2 3 4 3 3 3 6 11 13 16 13 5 5 8 7 15 25 25 26 32 36 37
42 23 18 41 53 53 57 53 42 26 10 7 8 3 3 3 3 8 23 20 7 2 4 4 7 10 9 9 10 10 9 8 10 8 5 6 4 5 10 9 5 8 13 11 6 1 3 3 3 2 1 5 4 5 8 9 7 3 3 5 4 2 2 1 2 2 3 3 3 3 5 7 7 7 10 14 11 6 9 10 9 16 26 28 29 32 35 37
35 13 15 45 55 54 54 39 21 10 5 5 4 1 3 5 3 7 16 19 9 2 3 6 6 9 8 9 9 9 7 6 8 6 3 7 7 3 8 15 10 8 9 6 5 3 2 2 3 1 2 4 3 3 2 3 7 8 7 7 8 6 3 2 4 2 2 4 4 4 6 10 8 4 6 11 7 6 11 12 10 17 26 29 30 30 31 33
23 8 21 48 54 54 45 19 6 5 3 5 4 4 7 7 5 5 6 11 9 3 4 6 4 6 6 6 7 8 8 6 8 8 5 7 9 4 9 17 15 13 10 5 5 4 3 2 2 1 3 3 2 4 4 4 2 3 5 5 6 5 5 6 7 4 3 3 1 1 4 12 10 5 6 8 7 10 16 16 14 19 24 27 28 28 28 29
15 16 35 51 53 53 35 8 5 5 2 6 9 8 8 6 4 4 3 5 4 2 3 4 2 4 4 3 7 9 9 6 6 8 5 5 6 5 7 13 16 13 9 5 5 5 3 2 3 3 3 3 3 0 4 6 4 1 4 4 6 7 8 9 7 3 4 4 3 2 4 12 11 4 7 11 12 14 15 16 17 20 24 27 27 28 27 27
23 29 38 46 51 48 25 5 9 9 3 9 9 5 5 5 4 5 4 3 2 2 4 3 1 3 3 4 8 11 11 5 4 6 4 2 5 6 9 17 17 11 8 8 8 10 6 3 4 4 2 1 2 2 2 2 1 3 4 6 10 11 11 10 5 1 2 7 9 7 6 11 8 3 4 9 10 10 9 13 18 21 24 28 27 27 28 27
25 21 22 35 45 35 10 1 9 11 9 12 10 6 6 5 3 8 8 4 2 4 5 2 3 5 5 6 7 7 10 5 3 6 3 2 4 4 11 20 19 12 12 13 13 13 7 3 5 6 5 5 6 6 6 5 3 1 2 5 9 12 13 10 5 3 5 6 9 8 7 11 13 9 8 8 5 6 8 11 17 20 23 27 27 27 28 27
15 7 8 17 22 14 1 3 9 8 8 12 9 6 9 5 1 7 11 4 1 6 6 2 6 8 5 8 8 7 10 4 2 6 7 6 3 2 11 21 21 17 14 13 17 14 3 3 7 8 10 10 9 9 5 3 3 2 4 8 9 11 13 10 6 6 6 6 8 10 8 11 19 22 21 14 7 7 9 9 16 21 23 25 27 28 29 28
8 5 4 6 7 4 3 6 10 5 6 10 6 4 9 8 3 4 5 2 4 8 5 2 5 8 7 11 10 8 11 5 2 6 9 8 2 1 7 14 18 20 14 12 18 13 3 4 9 9 13 13 12 10 4 3 5 7 8 11 11 11 12 12 10 9 8 7 9 10 10 11 19 26 27 19 9 6 7 9 17 21 21 23 25 26 29 30
5 6 6 9 7 3 4 11 12 8 8 9 4 3 7 9 8 5 2 2 4 8 4 2 6 11 13 14 9 6 9 5 2 5 7 7 4 2 3 3 5 12 11 9 12 8 3 6 9 8 12 14 13 12 6 3 5 6 8 11 12 12 13 13 14 13 10 9 9 9 10 13 19 25 28 23 12 9 14 17 20 21 20 21 24 26 30 32
10 10 9 11 6 2 9 18 17 11 10 9 3 4 9 11 9 5 3 4 2 4 4 4 9 10 11 12 9 7 10 8 7 8 5 5 4 3 4 1 2 4 8 6 4 2 2 5 7 6 9 12 12 12 9 6 7 7 9 10 10 11 13 14 15 15 15 16 14 14 16 17 17 19 26 27 12 7 18 22 17 17 18 19 22 25 29 31
10 9 10 11 8 8 14 16 14 10 8 7 4 4 8 12 11 6 3 5 6 4 3 6 8 7 7 9 8 8 14 12 8 8 7 6 4 3 4 3 1 3 6 5 1 1 3 4 5 4 4 9 11 11 10 9 10 12 13 11 8 8 9 12 15 15 15 17 18 20 20 18 16 16 27 35 20 8 16 19 13 14 16 17 22 26 30 33
13 14 19 16 6 6 11 9 8 8 6 5 5 5 8 11 12 8 2 1 6 7 5 8 10 7 4 6 8 9 10 8 5 7 11 10 7 6 4 4 6 6 5 5 3 3 4 4 2 3 3 8 10 12 12 10 9 12 13 12 11 11 11 13 14 14 15 16 17 18 17 14 14 15 23 33 29 22 26 24 15 14 17 19 24 30 34 36
19 19 22 17 6 4 8 7 6 8 6 5 4 4 6 6 7 8 3 1 2 4 9 15 14 7 4 7 11 9 8 9 7 8 11 11 8 9 8 8 11 10 6 5 3 3 5 4 2 4 4 8 13 13 10 7 6 8 10 14 17 18 18 17 15 14 16 14 12 13 13 12 14 14 17 24 27 28 30 23 15 17 21 24 29 34 36 36
Wind_Direction
245 244 242 241 238 233 227 222 222 223 223 227 229 229 229 227 231 237 231 225 225 223 223 226 223 215 213 213 213 214 216 216 214 213 214 218 221 222 222 222 217 214 216 219 221 221 219 220 222 223 222 226 235 214 193 188 176 169 124 115 196 196 198 180 182 196 161 152 192 182 186 180 189 200 199 206 210 220 234 239 233 226 226 227 233 236 238 220
242 243 242 240 241 238 230 224 222 222 221 224 227 227 229 228 228 233 233 226 222 223 223 224 226 221 211 210 211 208 210 213 215 218 217 216 218 220 220 219 213 209 211 215 218 219 218 218 216 215 214 210 209 195 191 191 181 162 103 161 218 200 195 186 183 191 173 83 178 179 188 190 195 190 191 204 210 212 227 240 235 237 237 234 238 242 249 242
240 241 241 240 241 240 233 227 223 221 220 221 225 225 225 227 226 228 233 230 221 221 222 220 224 223 212 208 208 206 211 212 217 222 216 213 216 216 216 216 212 206 207 213 216 217 218 218 215 209 203 199 196 190 184 183 191 183 130 195 237 219 217 207 190 194 205 218 173 176 187 192 196 186 186 197 197 205 226 231 226 237 247 243 239 240 249 252
239 239 239 238 239 239 235 230 224 220 219 219 222 224 223 224 226 226 230 230 221 218 220 217 219 221 214 207 202 201 209 212 223 226 215 211 214 209 209 209 206 203 204 208 208 209 210 206 205 202 195 188 184 186 187 185 189 186 169 200 238 208 217 231 206 208 213 212 191 179 176 191 195 184 186 182 165 233 239 238 236 247 261 258 247 246 251 254
238 238 237 237 237 238 236 231 225 220 218 218 219 222 222 223 225 225 227 229 222 215 215 216 216 219 217 209 202 197 196 201 233 228 217 212 212 205 204 202 199 199 200 202 200 198 197 194 191 188 186 174 165 173 199 190 177 179 202 222 232 166 178 268 216 208 203 195 192 174 165 192 188 187 197 185 184 233 242 247 248 256 269 263 252 252 255 255
237 237 236 236 237 236 237 233 227 222 219 218 218 219 221 222 222 221 223 226 223 214 212 217 216 217 218 208 200 190 185 190 270 220 215 212 211 207 201 199 197 195 197 197 194 192 189 185 182 178 174 162 172 175 186 186 182 199 235 233 216 196 212 320 204 196 197 188 185 179 185 191 178 195 209 202 218 234 245 253 235 244 268 266 253 249 252 256
235 235 234 235 236 236 236 234 229 225 221 218 217 217 219 220 218 218 219 222 222 215 210 217 217 216 215 207 195 184 186 203 25 193 209 209 211 212 205 203 200 196 196 194 191 191 187 183 180 175 166 149 185 189 175 180 186 194 235 225 206 219 228 267 215 206 204 199 199 193 199 191 187 207 212 217 231 237 245 249 246 258 267 269 259 247 248 255
233 233 233 233 234 235 235 233 229 226 222 219 218 215 216 219 217 216 216 218 221 216 210 214 217 215 214 211 199 183 193 196 120 147 193 198 201 208 208 205 202 199 196 196 195 192 189 186 181 174 167 165 184 185 168 165 188 200 213 209 190 218 224 229 227 218 220 220 217 201 203 205 206 212 218 232 241 245 249 253 257 262 261 259 261 254 247 249
232 231 231 230 231 232 232 232 229 226 222 219 218 215 214 217 216 215 214 215 218 217 212 211 214 214 216 218 211 204 208 190 143 134 154 185 192 194 203 204 200 198 197 198 198 195 191 185 182 179 179 180 172 173 169 164 224 214 205 192 174 190 208 224 224 215 223 224 210 206 225 231 213 218 249 248 250 252 250 254 256 257 259 255 257 260 254 250
232 231 230 229 228 228 228 229 227 226 224 219 217 215 213 215 216 214 212 212 215 216 212 210 213 212 213 216 211 221 218 194 158 150 125 160 188 188 193 201 200 196 197 198 198 200 196 190 188 181 175 172 159 160 168 176 222 208 197 191 184 193 202 222 219 215 220 228 223 219 251 253 218 214 244 248 253 253 249 251 252 254 257 256 256 258 257 255
232 230 229 227 226 225 224 226 226 224 225 220 216 215 213 214 214 213 211 208 211 213 210 209 210 208 211 211 206 219 222 207 188 173 123 119 181 190 188 192 197 196 197 199 199 202 201 202 197 184 171 171 160 148 177 196 209 156 157 181 231 244 240 231 212 212 209 233 238 221 278 277 244 210 216 231 251 260 253 249 251 254 257 259 258 256 256 257
231 228 227 226 223 224 223 225 226 222 222 219 214 214 213 211 211 210 208 205 206 210 208 208 208 206 205 206 210 218 221 217 210 190 158 119 155 190 191 188 193 197 199 200 199 201 201 206 202 191 182 173 158 119 209 205 197 160 143 175 308 353 293 238 210 200 195 216 208 167 300 273 243 226 224 239 248 252 253 253 255 258 261 262 261 257 256 257
229 226 226 225 221 221 221 223 226 223 220 217 212 213 213 210 207 205 202 200 201 205 206 207 209 206 199 200 215 219 217 221 219 203 181 164 148 181 191 190 190 194 199 201 201 198 198 203 202 192 172 163 158 123 178 181 167 167 142 151 326 13 312 233 198 178 181 204 170 148 272 257 241 237 235 242 245 245 248 251 254 258 262 263 263 261 258 257
226 225 224 224 220 218 219 221 223 222 217 212 207 211 212 206 203 201 199 198 197 201 204 205 209 206 199 202 216 217 217 220 218 209 195 180 171 179 193 192 188 191 195 197 198 192 190 194 194 186 168 164 162 134 118 122 137 148 123 136 170 195 280 259 195 170 172 212 175 149 254 259 256 241 236 242 241 242 245 248 253 256 259 260 262 261 260 259
226 223 221 222 219 216 217 217 219 219 214 209 206 210 211 203 200 199 198 198 197 199 200 200 206 203 197 206 216 214 215 214 209 211 208 197 185 184 193 193 189 188 187 187 191 186 178 175 178 175 158 152 151 134 85 39 62 121 170 207 187 195 264 313 205 180 187 208 176 159 240 265 272 257 240 237 234 238 241 245 250 253 256 257 260 262 264 264
226 222 220 219 217 215 215 215 216 215 211 208 205 208 210 203 198 199 198 196 195 196 195 195 196 194 191 199 206 204 203 202 201 205 207 205 199 193 187 190 191 180 172 173 177 180 174 165 168 165 146 145 144 121 86 78 273 303 198 193 169 182 234 311 241 209 214 176 181 199 230 260 284 278 238 230 231 238 242 249 253 255 259 259 261 264 266 267
225 222 219 218 216 214 213 213 213 212 210 206 203 206 207 198 193 197 197 194 192 193 198 200 193 187 187 188 188 188 183 183 192 195 196 199 203 200 182 167 174 169 161 157 156 165 171 164 161 161 146 144 139 124 137 207 217 223 153 153 167 163 165 226 280 236 218 187 217 221 233 249 259 43 168 201 224 238 244 252 257 258 261 262 264 267 268 270
222 220 218 216 215 213 211 211 210 210 207 202 201 202 200 194 192 195 192 189 185 184 197 202 192 185 191 192 179 176 181 182 185 188 184 186 197 201 185 167 166 163 151 145 142 150 160 159 150 149 142 151 160 165 185 210 195 167 136 135 147 161 172 198 247 225 184 181 236 220 236 255 257 253 238 236 237 251 255 260 265 266 266 267 269 270 270 272
220 218 217 214 213 212 210 208 207 206 200 197 198 195 192 187 186 187 185 183 176 170 192 186 180 183 182 184 175 172 181 183 179 181 180 179 187 193 190 180 169 158 144 129 135 147 146 138 133 165 186 186 187 186 190 179 140 152 151 162 171 181 208 217 244 237 169 167 228 222 228 251 257 256 249 254 258 264 270 271 271 270 269 270 270 271 271 270
220 217 215 213 212 210 208 205 204 201 194 191 188 183 180 174 168 168 170 176 176 166 159 175 177 180 122 164 172 172 175 177 175 173 175 178 176 173 172 168 157 151 145 134 146 156 147 157 186 199 193 183 187 178 166 126 131 150 153 179 185 188 225 236 258 287 175 173 240 231 229 252 260 262 256 259 262 261 266 268 267 267 267 268 268 270 271 271
219 216 214 212 211 208 206 202 201 198 190 187 184 178 173 169 170 167 159 166 179 178 173 173 177 178 141 158 169 170 163 161 171 171 170 172 169 162 158 156 149 149 149 135 128 103 152 202 208 204 173 160 169 156 141 109 111 139 156 175 190 198 226 240 244 292 148 181 265 246 234 252 261 264 255 253 251 246 254 257 262 264 265 267 268 269 272 273
217 215 213 212 210 207 205 201 199 195 189 188 187 184 181 181 187 182 167 152 172 183 184 173 176 172 154 164 171 172 164 143 159 167 164 165 167 165 161 160 160 160 138 126 125 115 249 235 221 238 25 132 149 160 158 137 116 127 140 149 191 205 235 281 263 269 142 191 268 283 262 257 263 269 258 242 232 245 253 254 258 263 265 266 267 269 271 274
215 214 212 211 209 206 204 200 197 190 187 187 187 188 188 187 190 180 165 130 127 172 173 171 177 172 157 165 173 174 170 151 155 165 165 166 169 168 163 161 157 147 140 147 161 172 211 255 234 243 260 118 139 170 161 151 155 163 150 153 196 180 167 266 280 277 169 214 271 298 288 269 264 274 268 243 234 244 255 256 259 261 261 264 267 269 270 271
213 212 213 210 207 205 202 199 192 186 187 188 186 188 188 187 188 176 155 98 72 146 158 168 175 175 168 165 173 175 170 164 166 168 169 171 169 167 163 157 153 150 162 176 176 185 201 185 150 202 201 154 163 177 168 179 202 202 199 192 183 166 185 217 285 321 352 350 354 303 288 272 237 252 263 246 229 238 251 255 259 259 259 262 265 267 267 268
211 211 212 209 206 203 200 197 188 185 189 188 184 185 185 184 185 175 153 71 95 143 153 169 171 177 173 167 177 176 165 169 173 171 172 174 169 159 157 157 158 171 179 175 173 198 214 180 129 127 146 167 179 187 187 187 193 214 212 198 174 165 189 205 55 29 11 331 320 25 285 278 214 229 254 260 215 230 246 250 256 259 260 261 263 265 267 268
209 210 210 208 204 200 197 194 186 185 186 183 181 181 179 181 181 174 158 50 192 171 155 172 173 182 180 172 173 166 154 176 176 172 172 174 170 155 150 157 152 177 172 161 167 211 218 188 173 179 180 184 200 209 202 183 184 227 198 172 166 154 153 138 106 94 304 273 284 89 240 274 272 239 245 251 242 240 247 255 257 260 263 262 263 266 268 270
208 208 209 207 201 196 193 189 183 182 179 175 177 176 172 175 177 171 153 29 199 162 146 170 174 182 181 170 165 160 158 167 167 179 176 172 172 158 153 164 137 158 152 139 188 205 158 173 197 218 212 216 223 220 205 184 188 231 163 156 164 161 157 152 142 176 225 285 297 128 165 270 279 260 232 224 241 248 247 261 262 261 264 264 266 268 269 271
207 206 207 203 199 195 190 182 178 179 176 172 172 172 166 167 171 167 145 93 179 140 144 165 169 173 171 168 167 156 136 157 156 183 182 177 175 160 155 180 160 153 158 158 194 185 137 167 189 198 201 215 218 209 177 184 197 227 155 152 167 171 164 154 147 182 245 353 268 230 153 259 269 261 245 217 239 246 237 245 256 257 260 263 266 268 270 271
205 204 203 200 197 194 190 185 180 179 178 169 167 169 165 162 165 158 114 175 154 104 153 157 159 159 151 156 171 146 124 163 151 170 177 180 178 164 156 183 160 145 169 175 176 145 159 185 185 181 189 210 210 187 159 184 213 175 124 99 109 120 121 137 144 157 130 221 243 226 168 232 270 250 168 290 246 248 239 229 243 252 257 262 265 268 271 273
204 202 200 198 193 187 186 184 180 179 175 167 167 168 162 161 162 146 175 188 110 89 149 148 157 155 143 144 168 146 135 176 144 152 165 170 171 160 134 162 151 133 176 190 158 134 170 184 181 183 197 202 195 174 170 179 166 117 98 81 75 65 71 99 116 128 150 228 244 226 174 199 274 254 165 199 227 224 227 236 250 255 259 264 269 272 275 275
202 200 199 196 189 183 179 168 167 173 170 167 167 162 154 152 160 157 169 158 102 127 138 131 152 154 150 150 152 150 127 98 146 147 149 150 159 150 125 146 139 118 173 194 175 148 107 154 174 194 197 184 159 163 185 168 152 130 89 107 113 105 95 85 118 162 196 233 245 221 166 180 246 257 178 225 249 222 214 233 253 260 265 273 279 282 281 279
199 199 197 192 186 183 178 165 160 166 167 166 163 157 149 132 166 180 152 133 138 172 154 143 156 158 157 158 159 158 133 117 170 159 157 155 156 167 163 165 156 142 173 184 182 165 140 170 168 165 187 180 154 151 173 158 160 158 151 156 166 184 171 172 195 186 209 248 258 169 145 172 243 259 253 249 257 245 227 225 240 260 272 278 280 279 278 278
195 195 190 189 185 178 173 166 161 163 164 163 158 154 151 155 167 165 140 150 173 169 157 149 154 157 158 162 167 161 137 146 187 170 165 162 167 186 188 178 172 163 158 172 175 155 152 212 179 147 185 182 168 164 176 177 182 182 176 181 192 194 192 191 185 158 215 256 270 137 131 182 263 263 253 244 239 238 242 246 252 261 267 271 273 274 275 276
190 188 185 186 183 172 166 161 160 163 162 158 154 152 164 165 158 147 148 187 172 139 147 148 149 155 161 166 167 157 143 166 174 160 161 165 176 192 195 195 193 167 99 156 174 173 183 211 185 181 178 175 183 192 177 148 176 191 181 173 192 205 218 205 171 182 208 255 281 137 133 208 233 248 245 241 239 236 241 249 255 259 261 265 269 271 274 276
184 183 180 177 172 167 164 160 160 163 160 154 152 158 164 157 151 155 161 184 159 137 140 143 144 150 160 161 158 160 143 148 168 158 162 175 187 190 189 197 194 172 132 162 175 180 202 243 197 181 163 169 189 194 156 126 165 191 146 159 211 212 193 247 130 159 156 342 299 201 203 224 236 283 279 253 243 241 243 247 254 258 258 261 266 269 272 276
177 175 170 162 161 161 160 159 161 162 158 153 153 167 166 167 165 167 163 154 159 151 141 141 148 153 156 144 155 173 123 85 163 164 163 181 200 193 186 195 190 184 171 167 152 162 196 228 195 158 162 185 188 176 166 167 163 165 160 182 215 164 133 187 269 104 107 266 251 186 232 276 288 289 284 257 224 232 244 246 252 258 260 261 264 267 270 275
168 165 159 154 157 160 161 161 161 162 159 157 165 168 165 233 161 149 131 115 131 144 141 146 160 156 153 140 158 172 158 111 164 170 162 177 200 193 187 203 189 193 203 177 140 189 183 214 198 160 185 203 185 174 188 189 142 138 187 180 124 50 74 178 231 86 147 240 257 194 220 248 266 271 299 298 247 230 230 238 252 264 265 261 262 267 273 277
159 153 152 154 158 162 163 162 162 162 161 160 163 149 87 101 122 120 130 121 126 146 154 154 155 155 156 154 159 167 166 165 169 172 171 171 196 188 182 195 195 200 208 183 106 210 167 186 268 191 180 168 151 166 207 237 99 100 174 156 129 127 215 158 187 211 188 221 261 228 216 213 226 247 265 269 258 233 225 242 250 262 262 259 263 270 277 282
152 141 147 158 161 164 163 161 162 162 159 164 169 164 110 110 40 116 135 128 124 148 161 143 136 154 165 161 158 163 170 174 167 169 178 171 201 194 181 181 197 201 199 176 156 254 130 164 273 264 177 142 124 164 204 210 210 28 89 148 162 230 192 167 192 209 182 216 246 240 226 217 227 236 245 255 253 211 212 242 236 249 259 263 267 273 279 284
145 131 146 162 162 164 163 158 157 159 162 163 161 165 136 96 21 122 135 133 118 136 164 154 149 155 161 157 154 161 169 174 169 173 184 175 186 209 185 178 177 185 183 175 187 214 64 175 231 332 192 167 160 197 204 197 188 178 176 176 196 209 126 162 215 161 154 208 234 250 256 251 238 223 232 249 250 209 213 234 235 248 260 268 272 277 282 286
139 118 147 161 162 161 157 151 150 158 162 146 117 61 128 114 103 120 129 133 122 41 128 134 138 144 146 147 154 165 162 158 170 173 176 185 189 216 197 190 177 156 159 171 200 191 82 185 186 117 175 182 186 188 185 190 182 188 200 193 195 190 144 203 225 184 180 207 205 218 252 260 248 187 212 240 234 204 217 228 235 247 258 269 276 281 286 288
130 104 151 161 162 158 150 139 145 153 132 132 112 104 121 112 119 123 115 124 113 65 100 101 102 128 133 138 149 159 155 151 176 180 185 203 201 205 204 193 172 150 147 164 199 180 113 114 141 163 217 218 201 144 85 49 125 195 225 204 199 196 177 208 222 204 199 211 211 155 258 270 261 185 194 235 226 218 223 224 235 248 258 271 278 282 286 288
107 116 150 162 163 158 150 128 139 136 71 129 114 95 109 103 110 129 123 117 95 47 103 95 111 133 130 141 141 151 157 156 178 183 188 213 214 218 200 178 161 148 147 160 182 167 125 115 175 207 251 281 294 70 57 38 49 310 260 218 204 203 201 218 223 191 188 196 205 198 236 267 267 188 198 237 235 234 230 225 237 251 259 266 272 277 283 286
106 118 142 160 164 161 155 141 154 149 142 141 121 93 107 100 114 137 137 124 107 126 121 104 119 115 121 141 140 155 164 156 181 190 183 206 216 213 188 175 167 160 172 183 175 171 172 174 183 194 224 288 292 294 319 334 191 207 233 220 215 209 208 225 235 223 221 199 200 211 231 255 259 157 198 243 246 254 249 234 242 251 258 264 270 276 281 284
114 114 132 154 162 165 158 354 168 158 155 149 137 138 128 88 107 140 129 100 89 124 114 113 128 104 106 115 109 153 168 150 166 183 181 211 206 197 186 183 179 177 196 194 166 158 176 195 181 196 208 199 206 217 222 229 216 201 230 223 224 216 208 216 227 235 231 200 200 215 228 253 268 272 262 255 259 281 273 250 250 253 257 265 271 275 278 280
122 107 119 141 153 164 40 63 150 149 154 149 137 148 142 111 68 131 126 115 92 107 91 111 134 101 108 134 123 162 184 163 116 165 188 200 193 210 193 186 185 189 196 183 159 149 156 229 194 203 217 216 222 226 216 181 165 169 204 209 218 219 212 214 221 222 220 211 218 222 222 254 271 272 268 257 232 248 261 253 252 255 260 267 272 276 278 280
122 115 122 124 129 136 74 119 139 132 151 151 144 161 142 125 118 122 116 129 162 137 87 26 155 136 155 159 140 166 184 170 102 159 186 191 148 50 186 181 190 196 187 168 165 153 101 217 204 210 222 227 235 236 220 136 183 198 204 212 218 215 210 217 226 223 217 224 233 225 213 234 258 265 268 265 243 229 243 239 247 257 264 268 274 278 279 280
107 102 110 130 139 161 149 153 155 138 141 148 130 112 130 137 151 154 87 56 154 159 113 29 194 174 167 160 140 150 167 158 194 188 180 180 159 97 147 175 206 195 178 167 178 165 124 211 209 210 227 237 243 241 231 170 204 213 210 220 223 212 206 217 230 230 225 231 246 242 221 226 248 261 268 270 260 234 244 248 252 259 262 265 270 273 275 278
106 101 96 111 108 83 132 146 148 137 142 148 124 132 150 154 156 151 103 90 151 193 145 164 196 179 164 159 136 136 160 168 203 206 160 131 151 120 116 133 333 171 168 172 199 170 124 216 215 202 230 246 247 247 243 224 237 248 235 231 231 223 215 219 229 232 230 233 240 245 242 237 242 257 269 275 273 235 251 256 251 250 253 260 269 273 275 278
113 120 117 108 78 76 112 130 138 136 144 146 142 166 161 159 163 159 139 145 162 194 190 165 164 148 148 161 150 167 188 185 183 185 150 119 149 166 158 180 150 129 162 175 208 137 147 215 215 179 234 256 251 252 247 229 234 245 245 243 245 250 241 229 231 231 231 236 235 238 245 247 247 256 268 274 280 277 265 258 243 248 259 266 273 275 276 277
108 125 129 120 90 98 117 123 132 141 161 167 160 170 168 172 170 151 82 190 163 170 168 138 129 113 110 167 189 194 188 170 125 142 163 165 161 162 175 176 144 139 175 187 168 145 167 213 205 146 233 256 248 247 245 238 240 246 250 247 237 242 242 233 231 227 228 235 235 236 242 247 249 254 265 274 278 274 266 259 253 261 266 267 270 272 273 274
109 120 123 114 93 107 122 122 136 151 174 175 150 150 156 160 152 134 125 251 112 118 145 142 133 123 134 192 211 198 159 151 129 126 160 174 153 150 175 174 153 152 171 177 153 145 171 195 187 161 218 256 251 247 248 248 246 241 240 233 226 229 233 235 237 233 232 234 232 237 240 242 250 253 258 267 269 265 264 262 257 260 263 267 270 270 271 273
Height
1456 1458 1461 1463 1466 1468 1471 1473 1476 1479 1482 1484 1487 1490 1493 1496 1499 1502 1504 1505 1507 1509 1512 1513 1515 1517 1519 1521 1523 1524 1527 1528 1529 1529 1528 1530 1534 1536 1537 1539 1542 1544 1546 1547 1548 1550 1552 1553 1555 1556 1558 1559 1559 1559 1560 1561 1561 1561 1563 1567 1569 1568 1567 1565 1566 1566 1562 1561 1562 1563 1564 1565 1566 1566 1567 1568 1569 1569 1570 1570 1570 1570 1571 1571 1571 1571 1572 1572
1452 1455 1457 1460 1462 1464 1467 1470 1473 1476 1479 1482 1484 1487 1491 1493 1496 1499 1502 1504 1505 1508 1510 1512 1514 1515 1517 1519 1520 1522 1525 1526 1527 1525 1525 1530 1533 1534 1536 1538 1540 1541 1543 1545 1546 1548 1550 1552 1553 1555 1557 1558 1559 1559 1560 1560 1561 1562 1565 1567 1566 1564 1562 1561 1561 1561 1561 1561 1561 1562 1564 1564 1564 1565 1566 1567 1568 1568 1569 1569 1569 1569 1570 1570 1570 1571 1571 1571
1449 1451 1453 1456 1458 1461 1464 1467 1470 1473 1476 1479 1482 1484 1488 1491 1493 1496 1500 1502 1503 1506 1508 1511 1513 1514 1516 1517 1518 1521 1523 1526 1525 1521 1524 1529 1531 1532 1535 1536 1538 1539 1541 1543 1545 1547 1549 1551 1553 1555 1556 1557 1558 1559 1559 1560 1560 1561 1564 1565 1562 1561 1560 1559 1560 1560 1560 1561 1561 1562 1563 1563 1563 1564 1565 1566 1567 1568 1567 1566 1567 1567 1568 1569 1569 1570 1570 1570
1444 1447 1449 1452 1455 1458 1461 1463 1467 1470 1473 1476 1479 1482 1485 1488 1491 1493 1497 1500 1502 1504 1506 1509 1511 1513 1514 1514 1516 1519 1523 1526 1520 1518 1525 1528 1528 1531 1533 1535 1536 1537 1539 1542 1544 1546 1548 1550 1552 1554 1555 1556 1557 1558 1559 1559 1560 1561 1562 1562 1560 1560 1559 1559 1559 1560 1560 1561 1561 1562 1563 1563 1563 1563 1563 1564 1566 1567 1564 1564 1565 1565 1566 1568 1568 1569 1569 1569
1440 1442 1445 1448 1451 1454 1457 1460 1463 1466 1470 1473 1476 1479 1482 1485 1488 1491 1494 1498 1500 1502 1504 1507 1509 1512 1513 1513 1514 1514 1521 1525 1515 1516 1525 1525 1526 1529 1531 1534 1535 1536 1538 1540 1542 1544 1546 1549 1551 1552 1554 1555 1557 1557 1558 1558 1559 1560 1560 1559 1559 1560 1559 1559 1559 1559 1560 1560 1561 1562 1563 1562 1562 1563 1562 1563 1564 1563 1562 1563 1564 1564 1565 1566 1567 1568 1567 1567
1435 1438 1441 1444 1447 1450 1454 1456 1459 1462 1466 1470 1473 1476 1479 1482 1486 1488 1491 1495 1499 1500 1502 1505 1507 1510 1511 1512 1512 1511 1516 1518 1512 1514 1520 1521 1525 1528 1530 1532 1533 1535 1536 1538 1540 1542 1545 1547 1549 1551 1552 1554 1555 1556 1556 1557 1558 1559 1559 1558 1559 1559 1559 1559 1559 1559 1560 1560 1561 1562 1562 1562 1562 1562 1561 1562 1560 1560 1561 1562 1563 1564 1564 1564 1565 1566 1566 1566
1431 1434 1437 1440 1443 1446 1450 1453 1456 1459 1463 1467 1470 1473 1476 1480 1483 1486 1489 1493 1497 1499 1500 1503 1506 1508 1510 1511 1511 1510 1510 1512 1511 1512 1515 1519 1523 1525 1528 1531 1532 1533 1535 1537 1538 1540 1543 1545 1547 1549 1551 1553 1555 1555 1555 1556 1557 1558 1558 1558 1558 1559 1559 1559 1559 1559 1560 1560 1560 1561 1562 1562 1562 1561 1561 1560 1558 1559 1561 1561 1562 1563 1563 1563 1563 1563 1564 1564
1427 1430 1433 1436 1439 1443 1446 1450 1453 1457 1461 1464 1467 1470 1473 1476 1480 1484 1487 1490 1494 1498 1499 1501 1503 1506 1508 1509 1510 1509 1509 1510 1512 1512 1513 1516 1519 1523 1526 1528 1531 1532 1534 1536 1537 1539 1541 1543 1545 1547 1550 1552 1552 1553 1554 1556 1557 1557 1557 1557 1557 1558 1558 1559 1559 1560 1560 1560 1560 1561 1561 1561 1561 1561 1561 1559 1558 1559 1560 1560 1561 1561 1561 1562 1561 1562 1563 1563
1423 1426 1429 1432 1436 1439 1443 1446 1450 1454 1457 1461 1465 1467 1470 1474 1478 1481 1484 1487 1491 1495 1497 1499 1501 1504 1507 1508 1509 1508 1507 1509 1512 1512 1513 1514 1516 1520 1523 1526 1528 1530 1532 1535 1536 1538 1540 1541 1543 1545 1547 1549 1551 1552 1553 1556 1557 1556 1556 1556 1557 1557 1558 1558 1559 1559 1560 1560 1560 1560 1560 1560 1560 1561 1559 1557 1557 1559 1559 1559 1559 1559 1560 1560 1560 1560 1561 1561
1419 1422 1425 1428 1432 1436 1439 1443 1447 1450 1454 1459 1462 1465 1468 1471 1475 1478 1482 1485 1489 1493 1495 1497 1499 1503 1505 1506 1509 1506 1504 1509 1512 1512 1513 1513 1515 1518 1520 1524 1526 1528 1531 1533 1535 1537 1538 1540 1542 1543 1546 1548 1550 1552 1553 1555 1554 1554 1555 1556 1556 1557 1557 1557 1558 1558 1559 1559 1560 1560 1560 1559 1560 1560 1558 1556 1556 1557 1557 1557 1557 1557 1558 1558 1559 1559 1559 1559
1414 1417 1421 1424 1428 1432 1435 1440 1443 1446 1451 1455 1459 1463 1465 1468 1472 1476 1479 1483 1486 1490 1493 1495 1497 1500 1502 1504 1506 1502 1502 1508 1511 1512 1513 1513 1515 1517 1519 1522 1524 1527 1529 1531 1534 1536 1538 1540 1541 1543 1545 1548 1550 1551 1552 1552 1553 1553 1554 1556 1556 1556 1557 1557 1557 1558 1558 1559 1559 1559 1559 1559 1559 1558 1556 1556 1556 1556 1556 1555 1556 1556 1556 1557 1557 1557 1557 1557
1410 1413 1417 1420 1424 1428 1431 1436 1440 1443 1448 1452 1456 1460 1463 1466 1470 1473 1477 1481 1484 1488 1491 1493 1495 1497 1501 1502 1502 1500 1502 1506 1508 1512 1513 1513 1515 1516 1519 1521 1524 1526 1528 1531 1533 1535 1537 1539 1540 1542 1544 1546 1549 1551 1550 1551 1553 1553 1554 1556 1557 1556 1556 1556 1556 1557 1557 1558 1558 1559 1560 1558 1555 1554 1553 1555 1555 1555 1555 1554 1554 1554 1554 1554 1554 1555 1555 1555
1406 1409 1413 1416 1420 1424 1428 1432 1436 1440 1445 1449 1453 1457 1461 1464 1468 1471 1475 1478 1482 1486 1489 1491 1494 1496 1499 1499 1498 1499 1502 1504 1507 1511 1512 1513 1515 1516 1518 1520 1523 1526 1528 1530 1532 1535 1537 1538 1540 1542 1543 1545 1548 1549 1549 1550 1552 1553 1554 1556 1558 1560 1558 1554 1555 1557 1556 1558 1557 1559 1563 1556 1549 1550 1551 1552 1553 1553 1552 1552 1552 1552 1552 1552 1552 1552 1552 1553
1402 1405 1408 1412 1416 1420 1424 1429 1433 1437 1442 1446 1450 1455 1458 1461 1466 1470 1473 1476 1480 1484 1487 1490 1493 1495 1496 1496 1495 1498 1501 1504 1507 1509 1510 1512 1514 1516 1518 1519 1522 1524 1527 1530 1532 1534 1535 1537 1540 1542 1544 1545 1546 1547 1549 1551 1553 1553 1556 1557 1559 1562 1560 1554 1555 1556 1555 1557 1556 1559 1564 1554 1545 1548 1549 1550 1551 1550 1549 1549 1550 1549 1549 1549 1549 1549 1549 1550
1397 1400 1404 1408 1412 1416 1421 1425 1430 1434 1438 1443 1447 1452 1455 1459 1463 1468 1472 1474 1478 1482 1486 1489 1492 1493 1494 1493 1494 1496 1499 1502 1505 1507 1509 1510 1513 1515 1516 1519 1521 1523 1526 1529 1531 1533 1535 1537 1539 1541 1543 1544 1545 1547 1550 1552 1553 1553 1557 1560 1560 1561 1559 1554 1554 1555 1554 1556 1555 1558 1563 1553 1543 1546 1547 1547 1548 1548 1547 1547 1547 1546 1546 1546 1546 1546 1546 1547
1393 1395 1400 1404 1408 1412 1417 1422 1426 1430 1435 1439 1445 1450 1454 1457 1461 1466 1470 1473 1477 1479 1482 1486 1486 1489 1491 1491 1492 1494 1496 1499 1502 1504 1506 1509 1512 1514 1516 1519 1521 1523 1526 1528 1530 1533 1535 1537 1539 1541 1542 1544 1545 1547 1551 1555 1555 1554 1556 1560 1561 1561 1561 1557 1554 1554 1552 1554 1554 1555 1558 1550 1543 1544 1544 1545 1546 1545 1545 1545 1545 1544 1543 1543 1543 1543 1543 1543
1388 1391 1396 1400 1404 1408 1413 1418 1422 1427 1432 1437 1442 1448 1453 1456 1459 1464 1468 1470 1473 1476 1479 1483 1484 1486 1487 1487 1488 1489 1492 1496 1500 1501 1503 1506 1511 1514 1515 1518 1521 1525 1526 1527 1530 1532 1534 1536 1538 1540 1541 1543 1544 1546 1553 1558 1556 1556 1557 1559 1560 1560 1561 1559 1554 1552 1553 1554 1554 1553 1554 1548 1542 1543 1543 1543 1544 1544 1544 1543 1542 1542 1541 1541 1541 1541 1540 1540
1384 1388 1392 1396 1400 1405 1409 1414 1419 1424 1428 1434 1440 1446 1453 1457 1458 1460 1462 1464 1468 1474 1480 1482 1484 1486 1484 1484 1485 1486 1489 1494 1497 1499 1501 1505 1510 1513 1514 1516 1519 1524 1527 1528 1530 1532 1533 1535 1537 1540 1542 1543 1543 1543 1549 1552 1550 1554 1558 1559 1560 1558 1558 1558 1553 1551 1552 1554 1555 1554 1555 1549 1541 1542 1543 1542 1543 1543 1542 1541 1540 1539 1539 1539 1539 1538 1537 1536
1380 1384 1388 1392 1396 1401 1406 1410 1415 1421 1425 1431 1438 1445 1452 1455 1455 1455 1456 1459 1463 1471 1475 1474 1477 1479 1478 1480 1483 1484 1488 1492 1494 1498 1500 1503 1508 1512 1514 1516 1517 1521 1526 1529 1531 1532 1532 1534 1538 1540 1540 1540 1540 1539 1543 1545 1544 1549 1554 1555 1557 1557 1557 1556 1552 1551 1552 1554 1555 1554 1554 1549 1540 1539 1541 1541 1543 1542 1540 1540 1537 1535 1535 1536 1535 1534 1533 1532
1376 1380 1384 1388 1392 1397 1402 1406 1412 1417 1422 1427 1434 1439 1442 1446 1449 1451 1454 1457 1460 1464 1467 1468 1472 1475 1475 1478 1481 1483 1487 1490 1492 1495 1499 1501 1505 1509 1513 1515 1517 1521 1524 1527 1531 1532 1532 1535 1536 1534 1534 1536 1537 1539 1541 1542 1542 1545 1549 1552 1553 1554 1555 1553 1551 1551 1551 1552 1553 1552 1553 1550 1541 1538 1539 1539 1541 1541 1539 1537 1533 1531 1532 1532 1531 1529 1528 1527
1372 1376 1380 1384 1389 1393 1398 1403 1408 1413 1417 1422 1427 1429 1430 1434 1436 1439 1447 1456 1461 1463 1466 1468 1471 1474 1476 1478 1480 1481 1484 1487 1490 1493 1497 1500 1503 1506 1511 1513 1515 1520 1522 1525 1530 1532 1533 1535 1533 1531 1532 1534 1537 1539 1541 1542 1543 1546 1549 1552 1554 1554 1554 1552 1551 1551 1552 1552 1551 1550 1551 1550 1541 1535 1536 1537 1538 1538 1535 1533 1529 1527 1528 1528 1526 1524 1523 1523
1368 1372 1376 1381 1385 1389 1394 1399 1404 1410 1414 1418 1422 1424 1426 1429 1430 1431 1436 1449 1458 1461 1464 1467 1470 1473 1476 1478 1479 1481 1483 1485 1490 1493 1496 1499 1501 1504 1508 1510 1512 1518 1520 1523 1530 1535 1537 1535 1532 1532 1533 1534 1536 1538 1540 1542 1544 1547 1549 1553 1555 1555 1555 1553 1550 1550 1552 1552 1550 1551 1550 1547 1540 1533 1531 1534 1535 1533 1530 1527 1525 1523 1524 1523 1521 1519 1519 1519
1364 1368 1372 1377 1381 1386 1391 1396 1401 1407 1409 1412 1417 1422 1425 1429 1434 1436 1438 1447 1456 1460 1462 1465 1468 1471 1474 1477 1478 1480 1481 1484 1488 1492 1494 1497 1499 1501 1504 1508 1512 1517 1520 1523 1528 1535 1538 1533 1530 1533 1534 1534 1537 1538 1540 1544 1545 1546 1548 1552 1553 1554 1554 1553 1550 1550 1551 1552 1551 1552 1551 1545 1539 1531 1525 1527 1529 1526 1524 1522 1521 1521 1520 1518 1516 1516 1515 1514
1359 1364 1368 1373 1378 1383 1387 1395 1399 1401 1403 1408 1414 1419 1424 1429 1435 1438 1441 1451 1458 1460 1462 1465 1467 1469 1472 1475 1477 1478 1480 1483 1485 1488 1492 1494 1497 1500 1502 1505 1512 1517 1519 1520 1524 1529 1532 1529 1528 1531 1533 1534 1538 1539 1540 1544 1547 1546 1546 1548 1550 1551 1551 1550 1550 1550 1550 1552 1551 1552 1549 1538 1532 1529 1520 1518 1522 1522 1519 1519 1517 1516 1515 1514 1513 1512 1510 1509
1355 1360 1365 1369 1375 1378 1386 1393 1394 1395 1401 1407 1411 1417 1424 1428 1434 1437 1441 1453 1461 1462 1464 1465 1466 1468 1471 1475 1477 1478 1480 1483 1484 1485 1489 1492 1494 1499 1502 1505 1510 1515 1517 1519 1524 1527 1527 1527 1528 1531 1533 1534 1537 1539 1539 1541 1545 1546 1543 1543 1546 1547 1548 1550 1551 1552 1553 1554 1552 1552 1550 1533 1522 1523 1518 1515 1519 1519 1517 1516 1514 1511 1511 1511 1509 1506 1505 1504
1352 1356 1361 1367 1370 1376 1385 1387 1385 1391 1400 1404 1408 1417 1423 1426 1433 1436 1442 1457 1464 1462 1463 1465 1466 1468 1470 1474 1476 1479 1482 1483 1485 1486 1488 1492 1494 1495 1501 1506 1508 1512 1515 1518 1525 1525 1523 1525 1527 1530 1533 1534 1538 1539 1537 1537 1543 1545 1539 1538 1543 1545 1548 1551 1551 1554 1557 1555 1552 1553 1554 1539 1522 1518 1516 1515 1516 1516 1516 1515 1512 1509 1507 1506 1505 1502 1501 1501
1348 1353 1358 1364 1367 1372 1378 1379 1382 1389 1395 1400 1407 1416 1422 1426 1432 1433 1444 1464 1465 1458 1461 1464 1464 1466 1468 1472 1474 1478 1482 1482 1485 1488 1487 1491 1494 1494 1500 1504 1507 1510 1512 1518 1524 1520 1518 1524 1528 1530 1533 1536 1539 1538 1535 1535 1540 1541 1535 1536 1542 1545 1548 1550 1551 1554 1554 1553 1552 1551 1553 1550 1531 1516 1512 1512 1513 1513 1514 1514 1510 1508 1505 1502 1501 1499 1498 1498
1345 1350 1355 1360 1364 1369 1372 1375 1380 1386 1392 1398 1405 1415 1420 1425 1431 1431 1444 1464 1458 1450 1457 1461 1462 1464 1467 1472 1474 1475 1478 1479 1482 1486 1487 1491 1494 1494 1498 1501 1503 1507 1508 1513 1519 1516 1514 1522 1526 1529 1535 1537 1536 1534 1533 1534 1537 1537 1534 1535 1539 1542 1545 1547 1550 1554 1554 1555 1555 1549 1552 1553 1531 1512 1512 1512 1510 1511 1512 1511 1508 1505 1502 1498 1497 1496 1494 1494
1342 1347 1352 1357 1363 1368 1371 1373 1377 1383 1392 1398 1405 1413 1418 1424 1427 1430 1442 1451 1446 1446 1452 1456 1461 1463 1466 1472 1475 1475 1476 1479 1481 1483 1486 1490 1492 1493 1496 1499 1501 1505 1506 1507 1511 1514 1515 1516 1519 1526 1532 1532 1529 1529 1531 1533 1535 1535 1535 1537 1539 1542 1545 1547 1550 1553 1557 1558 1551 1544 1549 1550 1527 1507 1512 1515 1510 1509 1508 1507 1504 1500 1497 1495 1493 1492 1491 1492
1339 1344 1349 1355 1361 1364 1368 1374 1376 1380 1390 1398 1406 1412 1417 1423 1425 1434 1447 1442 1439 1447 1450 1453 1459 1460 1463 1470 1475 1476 1477 1480 1480 1481 1485 1488 1491 1493 1495 1498 1501 1505 1508 1508 1510 1514 1513 1514 1518 1521 1524 1524 1525 1528 1529 1531 1535 1534 1535 1539 1542 1546 1547 1549 1551 1552 1557 1554 1542 1535 1541 1548 1534 1508 1505 1511 1506 1503 1503 1502 1500 1496 1493 1491 1490 1490 1489 1489
1336 1341 1347 1353 1357 1358 1363 1371 1375 1380 1389 1397 1405 1410 1415 1423 1426 1435 1444 1432 1433 1447 1449 1453 1460 1459 1461 1466 1472 1477 1478 1480 1479 1480 1485 1488 1491 1493 1494 1499 1502 1506 1510 1511 1513 1514 1513 1516 1519 1518 1519 1521 1524 1529 1529 1529 1533 1534 1536 1538 1542 1548 1549 1552 1554 1552 1554 1546 1532 1529 1535 1547 1541 1512 1500 1504 1500 1500 1500 1498 1496 1493 1490 1489 1488 1487 1487 1487
1335 1339 1346 1351 1354 1356 1360 1366 1370 1379 1391 1395 1401 1408 1412 1423 1431 1433 1432 1426 1432 1444 1445 1449 1456 1457 1461 1465 1469 1474 1476 1479 1479 1479 1483 1486 1490 1491 1491 1495 1498 1503 1509 1510 1512 1514 1515 1516 1515 1515 1517 1518 1522 1529 1531 1531 1532 1532 1536 1539 1543 1546 1546 1549 1549 1546 1546 1537 1527 1529 1535 1543 1536 1509 1498 1500 1498 1497 1496 1493 1493 1490 1489 1487 1485 1484 1484 1484
1333 1339 1345 1350 1352 1355 1359 1364 1370 1379 1389 1394 1399 1406 1409 1420 1426 1423 1424 1426 1429 1434 1438 1444 1449 1454 1459 1463 1468 1471 1474 1478 1479 1480 1482 1486 1489 1490 1491 1492 1492 1495 1500 1506 1511 1514 1517 1516 1515 1516 1517 1515 1517 1522 1527 1528 1528 1529 1532 1537 1541 1541 1541 1543 1542 1541 1541 1532 1527 1530 1536 1541 1529 1501 1490 1491 1491 1491 1490 1490 1490 1488 1486 1483 1480 1481 1480 1480
1332 1339 1346 1349 1351 1354 1357 1365 1374 1379 1387 1393 1398 1404 1410 1416 1416 1416 1423 1428 1428 1430 1435 1440 1447 1454 1458 1460 1464 1466 1472 1477 1478 1479 1484 1487 1490 1491 1492 1492 1492 1492 1496 1504 1510 1511 1513 1513 1511 1512 1512 1511 1512 1512 1514 1517 1521 1524 1523 1529 1535 1534 1534 1534 1533 1536 1535 1528 1529 1534 1536 1535 1518 1493 1484 1485 1485 1487 1487 1487 1487 1484 1482 1479 1478 1478 1477 1476
1332 1339 1344 1347 1350 1353 1357 1365 1375 1379 1386 1393 1397 1403 1408 1409 1409 1412 1419 1424 1427 1431 1435 1439 1445 1453 1459 1462 1464 1465 1469 1474 1477 1479 1483 1486 1487 1488 1490 1491 1491 1492 1495 1502 1506 1507 1510 1507 1501 1502 1503 1505 1506 1507 1509 1513 1520 1522 1521 1527 1531 1525 1524 1529 1530 1531 1531 1530 1532 1534 1530 1520 1502 1485 1482 1484 1484 1485 1485 1485 1483 1480 1477 1477 1476 1475 1474 1473
1334 1338 1341 1344 1347 1353 1359 1366 1374 1380 1385 1391 1398 1403 1402 1400 1401 1404 1409 1413 1417 1422 1431 1440 1445 1450 1458 1464 1466 1467 1468 1471 1476 1479 1482 1485 1486 1485 1487 1487 1488 1490 1491 1495 1499 1504 1508 1504 1498 1500 1502 1501 1502 1504 1506 1509 1515 1519 1521 1524 1521 1517 1520 1528 1533 1533 1535 1537 1529 1524 1521 1513 1500 1486 1478 1479 1481 1481 1482 1481 1479 1475 1474 1476 1474 1472 1471 1471
1332 1335 1339 1343 1346 1354 1362 1368 1375 1382 1386 1390 1396 1400 1398 1398 1399 1400 1405 1410 1414 1418 1424 1433 1438 1442 1451 1459 1463 1466 1468 1470 1474 1477 1480 1484 1484 1483 1485 1485 1486 1487 1486 1488 1493 1497 1500 1501 1499 1500 1502 1500 1500 1503 1504 1504 1507 1515 1519 1516 1515 1521 1523 1526 1532 1535 1538 1538 1524 1515 1514 1512 1508 1493 1476 1474 1477 1477 1479 1479 1476 1473 1472 1473 1471 1468 1469 1469
1328 1333 1340 1344 1348 1355 1363 1370 1377 1381 1386 1391 1395 1397 1398 1400 1400 1401 1405 1408 1413 1420 1423 1427 1433 1438 1445 1451 1457 1462 1465 1468 1473 1476 1479 1481 1480 1477 1480 1483 1482 1483 1484 1486 1490 1492 1494 1499 1500 1497 1498 1500 1501 1504 1507 1507 1506 1509 1511 1509 1514 1523 1526 1528 1531 1530 1531 1532 1521 1513 1511 1511 1508 1492 1475 1472 1472 1473 1477 1477 1476 1473 1468 1468 1468 1467 1467 1467
1326 1333 1341 1347 1351 1357 1364 1371 1378 1382 1387 1390 1393 1396 1398 1400 1401 1402 1404 1407 1413 1421 1424 1425 1430 1437 1443 1446 1450 1457 1460 1463 1468 1472 1474 1477 1477 1473 1474 1477 1478 1480 1483 1485 1488 1490 1492 1496 1498 1496 1497 1499 1502 1506 1507 1507 1509 1510 1510 1510 1512 1515 1517 1520 1520 1517 1520 1524 1518 1511 1509 1505 1494 1479 1471 1469 1467 1471 1475 1473 1473 1470 1465 1466 1468 1466 1466 1465
1326 1332 1343 1350 1353 1360 1366 1371 1378 1383 1386 1388 1390 1394 1397 1400 1403 1404 1404 1408 1415 1422 1424 1425 1427 1434 1441 1445 1449 1455 1459 1461 1465 1468 1470 1472 1473 1472 1473 1475 1476 1479 1483 1485 1487 1489 1491 1495 1497 1498 1499 1499 1501 1502 1499 1498 1504 1509 1510 1511 1512 1512 1512 1514 1512 1510 1513 1517 1517 1514 1508 1493 1474 1465 1466 1465 1464 1468 1470 1468 1469 1467 1464 1464 1465 1465 1464 1463
1326 1333 1344 1352 1355 1360 1366 1373 1380 1383 1385 1387 1391 1395 1396 1398 1403 1406 1407 1409 1414 1420 1422 1424 1427 1431 1437 1444 1450 1454 1458 1463 1465 1468 1470 1470 1469 1471 1471 1471 1472 1476 1481 1486 1488 1487 1490 1494 1496 1498 1499 1497 1496 1495 1494 1494 1497 1501 1503 1503 1504 1507 1511 1515 1515 1510 1508 1508 1508 1509 1505 1483 1461 1460 1463 1460 1461 1464 1464 1464 1464 1463 1463 1462 1462 1463 1462 1461
1327 1334 1344 1351 1355 1360 1364 1372 1380 1382 1385 1389 1392 1394 1395 1398 1403 1407 1409 1411 1414 1419 1421 1424 1429 1432 1437 1442 1447 1452 1457 1462 1465 1467 1468 1467 1465 1466 1467 1468 1470 1473 1478 1484 1487 1486 1489 1494 1495 1498 1498 1496 1495 1496 1497 1497 1495 1496 1499 1498 1499 1503 1508 1512 1512 1508 1506 1505 1501 1505 1506 1480 1454 1456 1461 1457 1458 1460 1459 1462 1461 1461 1462 1460 1459 1460 1460 1460
1328 1336 1345 1351 1356 1359 1363 1372 1381 1385 1388 1390 1391 1393 1395 1398 1403 1407 1410 1412 1415 1419 1421 1425 1429 1432 1437 1441 1445 1451 1455 1459 1464 1464 1465 1466 1465 1465 1466 1468 1470 1473 1476 1481 1484 1485 1489 1493 1495 1498 1497 1495 1494 1495 1497 1499 1499 1499 1499 1497 1498 1500 1501 1501 1500 1500 1502 1503 1502 1508 1510 1482 1452 1452 1458 1455 1456 1457 1457 1460 1459 1458 1459 1458 1458 1457 1457 1458
1331 1339 1349 1356 1360 1362 1362 1368 1375 1383 1388 1389 1391 1395 1397 1398 1402 1406 1409 1412 1415 1418 1420 1425 1428 1430 1435 1439 1442 1447 1451 1457 1464 1464 1464 1465 1465 1465 1466 1467 1469 1471 1473 1475 1477 1480 1485 1489 1492 1497 1500 1500 1500 1499 1499 1499 1500 1500 1497 1494 1494 1494 1496 1497 1499 1501 1501 1498 1496 1503 1504 1480 1453 1451 1456 1454 1455 1456 1456 1459 1458 1457 1457 1456 1456 1456 1455 1456
1332 1343 1353 1359 1365 1367 1367 1367 1367 1374 1382 1385 1390 1395 1396 1400 1404 1405 1408 1412 1415 1416 1419 1425 1428 1429 1434 1439 1444 1448 1448 1452 1459 1462 1464 1464 1464 1465 1465 1466 1468 1468 1469 1471 1472 1476 1482 1485 1488 1494 1497 1498 1498 1495 1492 1489 1491 1495 1495 1492 1491 1492 1494 1497 1500 1504 1501 1494 1491 1494 1492 1475 1455 1450 1453 1454 1456 1457 1456 1457 1457 1455 1456 1455 1455 1454 1454 1453
1331 1343 1354 1362 1368 1371 1372 1371 1371 1376 1380 1383 1391 1395 1395 1401 1406 1406 1408 1413 1416 1417 1420 1425 1427 1430 1435 1439 1444 1449 1449 1449 1454 1457 1459 1461 1462 1464 1463 1464 1467 1467 1469 1471 1473 1476 1482 1482 1482 1486 1486 1484 1483 1480 1478 1478 1483 1489 1490 1488 1489 1489 1490 1493 1496 1497 1494 1492 1490 1487 1485 1479 1463 1449 1445 1448 1454 1456 1454 1455 1455 1453 1454 1454 1454 1453 1451 1450
1332 1340 1349 1356 1367 1374 1375 1376 1377 1381 1383 1385 1390 1394 1396 1401 1405 1407 1409 1412 1414 1416 1420 1425 1425 1427 1433 1436 1440 1446 1447 1449 1452 1453 1455 1458 1460 1462 1463 1464 1466 1467 1469 1471 1472 1475 1480 1480 1479 1481 1479 1477 1475 1475 1476 1478 1480 1482 1483 1483 1484 1486 1487 1490 1491 1488 1486 1488 1486 1478 1479 1481 1468 1448 1439 1443 1451 1454 1452 1452 1451 1450 1452 1453 1452 1451 1449 1447
1335 1342 1347 1349 1357 1366 1371 1373 1377 1381 1385 1387 1391 1394 1398 1401 1403 1406 1409 1412 1414 1414 1418 1425 1425 1423 1426 1429 1433 1442 1448 1451 1453 1451 1452 1457 1459 1461 1464 1465 1466 1467 1469 1471 1472 1473 1477 1478 1477 1478 1478 1476 1475 1476 1478 1480 1479 1478 1479 1479 1479 1482 1485 1486 1486 1484 1484 1485 1482 1476 1477 1478 1466 1449 1438 1438 1446 1450 1447 1446 1447 1448 1449 1450 1449 1448 1446 1444
1336 1342 1349 1352 1356 1360 1362 1367 1374 1381 1385 1388 1392 1395 1397 1400 1402 1405 1408 1412 1415 1414 1414 1419 1422 1423 1425 1426 1428 1438 1444 1445 1447 1448 1450 1456 1459 1461 1464 1466 1468 1469 1469 1471 1473 1473 1475 1476 1475 1477 1478 1476 1475 1476 1478 1481 1482 1480 1478 1478 1477 1479 1480 1481 1480 1479 1480 1480 1477 1475 1474 1470 1462 1451 1438 1433 1441 1446 1443 1442 1444 1445 1446 1447 1446 1445 1444 1442
1338 1341 1347 1353 1359 1363 1365 1370 1376 1381 1386 1388 1391 1394 1395 1398 1401 1405 1406 1408 1412 1413 1412 1415 1420 1424 1427 1427 1427 1431 1434 1432 1435 1442 1448 1454 1458 1460 1461 1463 1466 1469 1470 1471 1473 1474 1477 1476 1473 1476 1480 1477 1474 1475 1477 1479 1481 1479 1478 1478 1479 1479 1479 1479 1476 1474 1474 1474 1472 1472 1471 1464 1458 1455 1443 1434 1439 1445 1442 1440 1441 1442 1444 1445 1444 1442 1441 1440
1340 1343 1345 1349 1359 1366 1369 1373 1377 1382 1386 1387 1388 1392 1395 1396 1398 1401 1405 1406 1407 1410 1412 1416 1421 1426 1428 1429 1427 1427 1430 1431 1434 1440 1443 1446 1450 1453 1455 1458 1462 1467 1470 1470 1470 1473 1477 1476 1473 1478 1482 1477 1471 1472 1474 1476 1479 1480 1479 1479 1479 1478 1475 1472 1469 1467 1467 1467 1468 1470 1469 1461 1455 1455 1449 1439 1437 1437 1434 1435 1439 1440 1441 1442 1440 1438 1437 1437
1343 1346 1348 1350 1360 1368 1370 1374 1379 1382 1383 1384 1385 1389 1393 1396 1398 1400 1404 1408 1408 1410 1413 1416 1419 1424 1428 1429 1426 1426 1431 1435 1436 1439 1441 1444 1447 1449 1452 1455 1457 1461 1466 1468 1469 1472 1474 1474 1473 1478 1481 1474 1467 1467 1471 1475 1480 1479 1474 1471 1470 1468 1466 1463 1462 1461 1461 1462 1464 1464 1460 1454 1452 1453 1451 1442 1433 1425 1422 1430 1437 1437 1436 1436 1435 1433 1433 1434